Regional Weather Roundup
Issued by NWS

Home | Current Version | Previous Version | Text Only | Print | Product List | Glossary On
Versions: 1 2 3 4 5 6 7 8 9 10 11 12 13 14 15 16 17 18 19 20 21 22 23 24 25 26 27
000
ASCA42 TJSJ 171210
RWRPR
PUERTO RICO/U.S. VIRGIN ISLANDS HOURLY WEATHER ROUNDUP
NATIONAL WEATHER SERVICE SAN JUAN PR
800 AM AST THU AUG 17 2017

PRZ001>002-007>008-010-171300-
PUERTO RICO

CITY           SKY/WX    TMP DP  RH WIND       PRES   REMARKS
SAN JUAN LMM   TSTM      75  73  94 E14G23    29.98R FOG
AGUADILLA      MOSUNNY   77  75  94 E8        29.96R
CEIBA          HVY RAIN  75  75 100 E5        30.04R VSB 3/4
$$

VIZ001>002-171300-
U.S. VIRGIN ISLANDS

CITY           SKY/WX    TMP DP  RH WIND       PRES   REMARKS
CHARLOTTE AMA  LGT RAIN  81  77  89 E6        29.98R
CHRISTIANSTED  CLOUDY    82  79  89 E20       29.97R HX  93
$$

HOURLY WEATHER ROUNDUP FOR THE NEWS MEDIA

CITY           SKY/WX    TMP DP  RH WIND       PRES   REMARKS
ORLANDO        SUNNY     80  77  90 CALM      30.09R
NEW YORK       PTSUNNY   72  61  68 NE8       30.08R
NEWARK         PTSUNNY   70  58  65 N10       30.07R
CHICAGO        LGT RAIN  74  69  85 S12G20    29.78R
HARTFORD       SUNNY     65  51  60 CALM      30.06R
BOSTON         PTSUNNY   67  49  52 W7        30.07R
DALLAS         TSTM      73  70  90 E14       29.99S FOG
PHILADELPHIA   MOSUNNY   74  63  68 NE7       30.06R
LOS ANGELES    PTCLDY    66  62  87 CALM      29.97S
WASHINGTON DC  MOSUNNY   73  71  93 CALM      30.04R



USA.gov is the U.S. government's official web portal to all federal, state and local government web resources and services.